Time,TemperatureF,DewpointF,PressureIn,WindDirection,WindDirectionDegrees,WindSpeedMPH,WindSpeedGustMPH,Humidity,HourlyPrecipIn,Conditions,Clouds,dailyrainin,SoftwareType,DateUTC
2013-04-23 00:00:00,36.3,34.5,30.27,ENE,68,1.1,1.1,93,0.00,,CLR,0.00,VWS V13.01,2013-04-23 07:00:00,
2013-04-23 00:05:00,36.1,34.3,30.27,NE,45,1.1,1.6,93,0.00,,CLR,0.00,VWS V13.01,2013-04-23 07:05:00,
2013-04-23 00:10:00,36.1,34.3,30.27,ENE,68,1.6,2.0,93,0.00,,CLR,0.00,VWS V13.01,2013-04-23 07:10:00,
2013-04-23 00:15:00,36.0,34.1,30.27,ENE,68,1.1,1.6,93,0.00,,CLR,0.00,VWS V13.01,2013-04-23 07:15:00,
2013-04-23 00:21:00,35.8,34.0,30.27,ENE,68,1.3,2.0,93,0.00,,CLR,0.00,VWS V13.01,2013-04-23 07:21:00,
2013-04-23 00:26:00,35.6,33.8,30.27,ENE,68,1.3,2.2,93,0.00,,CLR,0.00,VWS V13.01,2013-04-23 07:26:00,
2013-04-23 00:31:00,35.6,33.8,30.27,ENE,68,1.1,1.6,93,0.00,,CLR,0.00,VWS V13.01,2013-04-23 07:31:00,
2013-04-23 00:36:00,35.4,33.6,30.27,ENE,68,2.2,2.2,93,0.00,,CLR,0.00,VWS V13.01,2013-04-23 07:36:00,
2013-04-23 00:41:00,35.2,33.7,30.27,NE,45,0.9,1.1,94,0.00,,CLR,0.00,VWS V13.01,2013-04-23 07:41:00,
2013-04-23 00:46:00,35.2,33.4,30.27,NE,45,0.9,0.9,93,0.00,,CLR,0.00,VWS V13.01,2013-04-23 07:46:00,
2013-04-23 00:51:00,35.1,33.2,30.27,ENE,68,0.0,0.9,93,0.00,,CLR,0.00,VWS V13.01,2013-04-23 07:51:00,
2013-04-23 00:56:00,34.9,33.1,30.27,ENE,68,0.0,1.3,93,0.00,,CLR,0.00,VWS V13.01,2013-04-23 07:56:00,
2013-04-23 01:01:00,34.7,32.9,30.27,NE,45,0.0,0.0,93,0.00,,CLR,0.00,VWS V13.01,2013-04-23 08:01:00,
2013-04-23 01:06:00,34.5,32.7,30.27,East,90,0.0,0.0,93,0.00,,CLR,0.00,VWS V13.01,2013-04-23 08:06:00,
2013-04-23 01:11:00,34.5,32.4,30.27,East,90,0.0,0.0,92,0.00,,CLR,0.00,VWS V13.01,2013-04-23 08:11:00,
2013-04-23 01:16:00,34.3,32.3,30.27,SE,135,0.0,0.0,92,0.00,,CLR,0.00,VWS V13.01,2013-04-23 08:16:00,
2013-04-23 01:21:00,34.3,32.3,30.27,ENE,68,0.0,0.0,92,0.00,,CLR,0.00,VWS V13.01,2013-04-23 08:21:00,
2013-04-23 01:26:00,34.2,32.1,30.27,ENE,68,1.3,1.3,92,0.00,,CLR,0.00,VWS V13.01,2013-04-23 08:26:00,
2013-04-23 01:31:00,34.0,31.9,30.27,ENE,68,0.0,0.0,92,0.00,,CLR,0.00,VWS V13.01,2013-04-23 08:31:00,
2013-04-23 01:36:00,34.0,31.9,30.27,NE,45,0.0,0.0,92,0.00,,CLR,0.00,VWS V13.01,2013-04-23 08:36:00,
2013-04-23 01:41:00,34.0,31.9,30.27,ESE,112,0.0,0.0,92,0.00,,CLR,0.00,VWS V13.01,2013-04-23 08:41:00,
2013-04-23 01:46:00,34.0,32.2,30.24,East,90,0.0,0.0,93,0.00,,CLR,0.00,VWS V13.01,2013-04-23 08:46:00,
2013-04-23 01:51:00,34.0,32.2,30.24,NE,45,1.1,1.1,93,0.00,,CLR,0.00,VWS V13.01,2013-04-23 08:51:00,
2013-04-23 01:56:00,34.0,32.2,30.24,NNE,22,0.0,0.0,93,0.00,,CLR,0.00,VWS V13.01,2013-04-23 08:56:00,
2013-04-23 02:01:00,34.0,32.2,30.24,NE,45,0.0,0.0,93,0.00,,CLR,0.00,VWS V13.01,2013-04-23 09:01:00,
2013-04-23 02:06:00,34.0,32.2,30.24,NE,45,0.0,0.0,93,0.00,,CLR,0.00,VWS V13.01,2013-04-23 09:06:00,
2013-04-23 02:11:00,34.2,32.3,30.24,NE,45,0.0,0.0,93,0.00,,CLR,0.00,VWS V13.01,2013-04-23 09:11:00,
2013-04-23 02:16:00,34.3,32.8,30.24,NE,45,0.0,0.0,94,0.00,,CLR,0.00,VWS V13.01,2013-04-23 09:16:00,
2013-04-23 02:21:00,34.5,33.0,30.24,SE,135,0.0,0.0,94,0.00,,CLR,0.00,VWS V13.01,2013-04-23 09:21:00,
2013-04-23 02:26:00,34.5,33.0,30.24,East,90,0.0,0.0,94,0.00,,CLR,0.00,VWS V13.01,2013-04-23 09:26:00,
2013-04-23 02:31:00,34.5,33.0,30.24,East,90,0.0,0.0,94,0.00,,CLR,0.00,VWS V13.01,2013-04-23 09:31:00,
2013-04-23 02:36:00,34.3,32.8,30.24,NE,45,0.0,0.0,94,0.00,,CLR,0.00,VWS V13.01,2013-04-23 09:36:00,
2013-04-23 02:42:00,34.5,33.2,30.24,NE,45,0.0,0.0,95,0.00,,CLR,0.00,VWS V13.01,2013-04-23 09:42:00,
2013-04-23 02:47:00,34.3,33.1,30.24,ENE,68,0.0,1.6,95,0.00,,CLR,0.00,VWS V13.01,2013-04-23 09:47:00,
2013-04-23 02:52:00,34.3,33.1,30.24,NE,45,0.0,0.0,95,0.00,,CLR,0.00,VWS V13.01,2013-04-23 09:52:00,
2013-04-23 02:57:00,34.5,33.2,30.24,ENE,68,0.0,0.0,95,0.00,,CLR,0.00,VWS V13.01,2013-04-23 09:57:00,
2013-04-23 03:02:00,34.5,33.2,30.21,East,90,0.0,0.0,95,0.00,,CLR,0.00,VWS V13.01,2013-04-23 10:02:00,
2013-04-23 03:07:00,34.5,33.2,30.21,East,90,0.0,0.0,95,0.00,,CLR,0.00,VWS V13.01,2013-04-23 10:07:00,
2013-04-23 03:12:00,34.7,33.7,30.21,ENE,68,0.0,0.0,96,0.00,,CLR,0.00,VWS V13.01,2013-04-23 10:12:00,
2013-04-23 03:17:00,34.9,33.9,30.21,NE,45,0.0,0.0,96,0.00,,CLR,0.00,VWS V13.01,2013-04-23 10:17:00,
2013-04-23 03:22:00,35.1,34.0,30.21,ESE,112,0.0,0.0,96,0.00,,CLR,0.00,VWS V13.01,2013-04-23 10:22:00,
2013-04-23 03:27:00,34.9,33.9,30.21,NE,45,0.0,0.0,96,0.00,,CLR,0.00,VWS V13.01,2013-04-23 10:27:00,
2013-04-23 03:32:00,35.1,34.0,30.21,SE,135,0.0,0.0,96,0.00,,CLR,0.00,VWS V13.01,2013-04-23 10:32:00,
2013-04-23 03:37:00,35.2,34.2,30.21,ENE,68,0.0,0.0,96,0.00,,CLR,0.00,VWS V13.01,2013-04-23 10:37:00,
2013-04-23 03:42:00,35.4,34.7,30.21,NE,45,0.0,0.0,97,0.00,,CLR,0.00,VWS V13.01,2013-04-23 10:42:00,
2013-04-23 03:47:00,35.4,34.7,30.21,ENE,68,0.0,0.9,97,0.00,,CLR,0.00,VWS V13.01,2013-04-23 10:47:00,
2013-04-23 03:52:00,35.6,34.6,30.21,East,90,0.0,0.0,96,0.00,,CLR,0.00,VWS V13.01,2013-04-23 10:52:00,
2013-04-23 03:57:00,35.8,35.0,30.21,NE,45,0.0,0.0,97,0.00,,CLR,0.00,VWS V13.01,2013-04-23 10:57:00,
2013-04-23 04:02:00,36.0,35.2,30.21,ESE,112,0.0,0.0,97,0.00,,CLR,0.00,VWS V13.01,2013-04-23 11:02:00,
2013-04-23 04:07:00,36.0,35.2,30.21,NE,45,0.0,0.0,97,0.00,,CLR,0.00,VWS V13.01,2013-04-23 11:07:00,
2013-04-23 04:12:00,36.3,35.5,30.21,ENE,68,0.0,0.0,97,0.00,,CLR,0.00,VWS V13.01,2013-04-23 11:12:00,
2013-04-23 04:17:00,36.3,35.5,30.21,NE,45,0.0,0.0,97,0.00,,CLR,0.00,VWS V13.01,2013-04-23 11:17:00,
2013-04-23 04:22:00,36.3,35.5,30.21,NE,45,0.0,0.0,97,0.00,,CLR,0.00,VWS V13.01,2013-04-23 11:22:00,
2013-04-23 04:27:00,36.7,35.9,30.21,ENE,68,0.0,1.1,97,0.00,,CLR,0.00,VWS V13.01,2013-04-23 11:27:00,
2013-04-23 04:32:00,36.5,35.7,30.21,East,90,0.0,0.0,97,0.00,,CLR,0.00,VWS V13.01,2013-04-23 11:32:00,
2013-04-23 04:37:00,36.1,35.1,30.21,NE,45,0.0,0.0,96,0.00,,CLR,0.00,VWS V13.01,2013-04-23 11:37:00,
2013-04-23 04:42:00,36.1,35.1,30.21,NE,45,0.0,0.0,96,0.00,,CLR,0.00,VWS V13.01,2013-04-23 11:42:00,
2013-04-23 04:47:00,36.0,34.9,30.21,NE,45,0.0,0.0,96,0.00,,CLR,0.00,VWS V13.01,2013-04-23 11:47:00,
2013-04-23 04:53:00,36.0,34.9,30.21,East,90,0.0,0.0,96,0.00,,CLR,0.00,VWS V13.01,2013-04-23 11:53:00,
2013-04-23 04:58:00,36.0,34.9,30.21,East,90,0.0,0.0,96,0.00,,CLR,0.00,VWS V13.01,2013-04-23 11:58:00,
2013-04-23 05:03:00,36.0,34.9,30.18,ENE,68,0.0,0.0,96,0.00,,CLR,0.00,VWS V13.01,2013-04-23 12:03:00,
2013-04-23 05:08:00,36.1,35.4,30.18,ENE,68,0.0,1.1,97,0.00,,CLR,0.00,VWS V13.01,2013-04-23 12:08:00,
2013-04-23 05:13:00,36.3,35.5,30.18,ENE,68,0.0,0.0,97,0.00,,CLR,0.00,VWS V13.01,2013-04-23 12:13:00,
2013-04-23 05:18:00,36.3,35.5,30.18,NE,45,0.0,0.0,97,0.00,,CLR,0.00,VWS V13.01,2013-04-23 12:18:00,
2013-04-23 05:23:00,36.3,35.8,30.18,ENE,68,0.0,0.0,98,0.00,,CLR,0.00,VWS V13.01,2013-04-23 12:23:00,
2013-04-23 05:28:00,36.5,36.0,30.18,ENE,68,0.0,0.0,98,0.00,,CLR,0.00,VWS V13.01,2013-04-23 12:28:00,
2013-04-23 05:33:00,36.7,36.2,30.18,NE,45,0.0,0.0,98,0.00,,CLR,0.00,VWS V13.01,2013-04-23 12:33:00,
2013-04-23 05:38:00,36.9,36.3,30.18,East,90,0.0,0.0,98,0.00,,CLR,0.00,VWS V13.01,2013-04-23 12:38:00,
2013-04-23 05:43:00,36.9,36.3,30.18,NE,45,0.0,0.0,98,0.00,,CLR,0.00,VWS V13.01,2013-04-23 12:43:00,
2013-04-23 05:48:00,36.9,36.3,30.18,NE,45,0.0,0.0,98,0.00,,CLR,0.00,VWS V13.01,2013-04-23 12:48:00,
2013-04-23 05:53:00,37.0,36.5,30.18,ENE,68,0.0,0.0,98,0.00,,CLR,0.00,VWS V13.01,2013-04-23 12:53:00,
2013-04-23 05:58:00,37.0,36.5,30.18,ENE,68,0.0,0.0,98,0.00,,CLR,0.00,VWS V13.01,2013-04-23 12:58:00,
2013-04-23 06:03:00,37.2,36.7,30.18,East,90,0.0,0.0,98,0.00,,CLR,0.00,VWS V13.01,2013-04-23 13:03:00,
2013-04-23 06:08:00,37.2,36.7,30.18,NE,45,0.0,0.0,98,0.00,,CLR,0.00,VWS V13.01,2013-04-23 13:08:00,
2013-04-23 06:13:00,37.4,36.9,30.18,East,90,0.0,0.0,98,0.00,,CLR,0.00,VWS V13.01,2013-04-23 13:13:00,
2013-04-23 06:18:00,38.5,38.0,30.18,South,180,4.9,4.9,98,0.00,,CLR,0.00,VWS V13.01,2013-04-23 13:18:00,
2013-04-23 06:23:00,39.4,38.9,30.18,WNW,292,0.0,0.0,98,0.00,,CLR,0.00,VWS V13.01,2013-04-23 13:23:00,
2013-04-23 06:28:00,40.3,39.8,30.18,SSE,158,0.0,0.0,98,0.00,,CLR,0.00,VWS V13.01,2013-04-23 13:28:00,
2013-04-23 06:33:00,40.8,40.3,30.18,SE,135,0.0,0.0,98,0.00,,CLR,0.00,VWS V13.01,2013-04-23 13:33:00,
2013-04-23 06:38:00,41.2,40.4,30.18,ENE,68,0.9,1.6,97,0.00,,CLR,0.00,VWS V13.01,2013-04-23 13:38:00,
2013-04-23 06:43:00,41.7,40.1,30.18,East,90,5.4,5.4,94,0.00,,CLR,0.00,VWS V13.01,2013-04-23 13:43:00,
2013-04-23 06:48:00,42.1,39.7,30.18,WNW,292,1.3,1.3,91,0.00,,CLR,0.00,VWS V13.01,2013-04-23 13:48:00,
2013-04-23 06:53:00,42.4,39.4,30.18,SSE,158,1.6,2.5,89,0.00,,CLR,0.00,VWS V13.01,2013-04-23 13:53:00,
2013-04-23 06:59:00,42.8,39.5,30.18,SSE,158,2.9,2.9,88,0.00,,CLR,0.00,VWS V13.01,2013-04-23 13:59:00,
2013-04-23 07:04:00,43.2,39.6,30.18,ESE,112,0.0,1.6,87,0.00,,CLR,0.00,VWS V13.01,2013-04-23 14:04:00,
2013-04-23 07:09:00,43.3,39.4,30.18,NE,45,1.1,1.3,86,0.00,,CLR,0.00,VWS V13.01,2013-04-23 14:09:00,
2013-04-23 07:14:00,43.5,39.6,30.18,ESE,112,1.1,1.6,86,0.00,,CLR,0.00,VWS V13.01,2013-04-23 14:14:00,
2013-04-23 07:19:00,43.7,39.2,30.18,NW,315,0.0,1.1,84,0.00,,CLR,0.00,VWS V13.01,2013-04-23 14:19:00,
2013-04-23 07:24:00,44.1,39.2,30.18,NNE,22,1.1,3.1,83,0.00,,CLR,0.00,VWS V13.01,2013-04-23 14:24:00,
2013-04-23 07:29:00,44.4,39.3,30.18,NE,45,2.7,2.7,82,0.00,,CLR,0.00,VWS V13.01,2013-04-23 14:29:00,
2013-04-23 07:34:00,44.8,39.0,30.18,SSE,158,0.0,2.7,80,0.00,,CLR,0.00,VWS V13.01,2013-04-23 14:34:00,
2013-04-23 07:39:00,45.1,39.3,30.18,NE,45,1.3,1.3,80,0.00,,CLR,0.00,VWS V13.01,2013-04-23 14:39:00,
2013-04-23 07:44:00,45.5,39.0,30.18,NNE,22,0.0,1.3,78,0.00,,CLR,0.00,VWS V13.01,2013-04-23 14:44:00,
2013-04-23 07:49:00,45.9,39.1,30.18,NE,45,0.0,1.1,77,0.00,,CLR,0.00,VWS V13.01,2013-04-23 14:49:00,
2013-04-23 07:54:00,46.2,39.1,30.18,ENE,68,1.3,4.3,76,0.00,,CLR,0.00,VWS V13.01,2013-04-23 14:54:00,
2013-04-23 07:59:00,46.4,38.6,30.18,SE,135,0.0,2.5,74,0.00,,CLR,0.00,VWS V13.01,2013-04-23 14:59:00,
2013-04-23 08:04:00,46.8,39.3,30.18,NW,315,0.0,1.6,75,0.00,,CLR,0.00,VWS V13.01,2013-04-23 15:04:00,
2013-04-23 08:09:00,46.9,39.1,30.18,WSW,248,0.9,1.3,74,0.00,,CLR,0.00,VWS V13.01,2013-04-23 15:09:00,
2013-04-23 08:14:00,46.9,39.1,30.18,SW,225,4.3,4.7,74,0.00,,CLR,0.00,VWS V13.01,2013-04-23 15:14:00,
2013-04-23 08:19:00,47.1,38.9,30.21,South,180,2.0,2.7,73,0.00,,CLR,0.00,VWS V13.01,2013-04-23 15:19:00,
2013-04-23 08:24:00,47.3,39.1,30.21,WSW,248,0.0,1.3,73,0.00,,CLR,0.00,VWS V13.01,2013-04-23 15:24:00,
2013-04-23 08:30:00,47.5,39.3,30.21,NNW,338,1.1,1.3,73,0.00,,CLR,0.00,VWS V13.01,2013-04-23 15:30:00,
2013-04-23 08:35:00,47.8,38.9,30.21,WNW,292,0.0,2.0,71,0.00,,CLR,0.00,VWS V13.01,2013-04-23 15:35:00,
2013-04-23 08:40:00,48.0,36.8,30.21,NW,315,2.9,2.9,65,0.00,,CLR,0.00,VWS V13.01,2013-04-23 15:40:00,
2013-04-23 08:45:00,48.0,36.0,30.21,SSW,202,0.9,2.5,63,0.00,,CLR,0.00,VWS V13.01,2013-04-23 15:45:00,
2013-04-23 08:50:00,48.4,36.4,30.21,NE,45,2.7,2.7,63,0.00,,CLR,0.00,VWS V13.01,2013-04-23 15:50:00,
2013-04-23 08:55:00,48.6,36.2,30.21,ENE,68,0.0,3.1,62,0.00,,CLR,0.00,VWS V13.01,2013-04-23 15:55:00,
2013-04-23 09:00:00,48.7,36.3,30.21,NE,45,4.3,4.3,62,0.00,,CLR,0.00,VWS V13.01,2013-04-23 16:00:00,
2013-04-23 09:05:00,48.7,35.9,30.21,NE,45,1.1,1.1,61,0.00,,CLR,0.00,VWS V13.01,2013-04-23 16:05:00,
2013-04-23 09:10:00,48.7,35.1,30.21,South,180,0.0,0.0,59,0.00,,CLR,0.00,VWS V13.01,2013-04-23 16:10:00,
2013-04-23 09:15:00,48.9,34.8,30.21,North,0,0.9,2.7,58,0.00,,CLR,0.00,VWS V13.01,2013-04-23 16:15:00,
2013-04-23 09:20:00,48.9,34.8,30.21,NE,45,1.6,1.6,58,0.00,,CLR,0.00,VWS V13.01,2013-04-23 16:20:00,
2013-04-23 09:25:00,49.6,34.2,30.21,West,270,0.0,0.0,55,0.00,,CLR,0.00,VWS V13.01,2013-04-23 16:25:00,
2013-04-23 09:30:00,50.2,35.1,30.21,South,180,0.0,1.1,56,0.00,,CLR,0.00,VWS V13.01,2013-04-23 16:30:00,
2013-04-23 09:35:00,50.5,34.1,30.21,SE,135,0.0,3.1,53,0.00,,CLR,0.00,VWS V13.01,2013-04-23 16:35:00,
2013-04-23 09:40:00,50.7,33.8,30.21,ENE,68,2.7,4.9,52,0.00,,CLR,0.00,VWS V13.01,2013-04-23 16:40:00,
2013-04-23 09:45:00,51.3,33.8,30.21,South,180,1.6,2.9,51,0.00,,CLR,0.00,VWS V13.01,2013-04-23 16:45:00,
2013-04-23 09:50:00,51.8,33.3,30.21,WNW,292,0.0,3.1,49,0.00,,CLR,0.00,VWS V13.01,2013-04-23 16:50:00,
2013-04-23 09:55:00,52.3,34.8,30.21,NE,45,0.9,0.9,51,0.00,,CLR,0.00,VWS V13.01,2013-04-23 16:55:00,
2013-04-23 10:00:00,52.7,33.6,30.21,NE,45,2.9,3.1,48,0.00,,CLR,0.00,VWS V13.01,2013-04-23 17:00:00,
2013-04-23 10:05:00,53.1,34.4,30.21,NE,45,0.0,2.0,49,0.00,,CLR,0.00,VWS V13.01,2013-04-23 17:05:00,
2013-04-23 10:10:00,53.2,34.1,30.21,NNW,338,0.9,2.2,48,0.00,,CLR,0.00,VWS V13.01,2013-04-23 17:10:00,
2013-04-23 10:16:00,53.6,34.4,30.21,South,180,1.1,1.1,48,0.00,,CLR,0.00,VWS V13.01,2013-04-23 17:16:00,
2013-04-23 10:21:00,54.9,35.0,30.21,West,270,1.6,2.5,47,0.00,,CLR,0.00,VWS V13.01,2013-04-23 17:21:00,
2013-04-23 10:26:00,55.4,34.4,30.21,North,0,0.0,2.9,45,0.00,,CLR,0.00,VWS V13.01,2013-04-23 17:26:00,
2013-04-23 10:31:00,55.4,33.9,30.21,South,180,0.0,1.1,44,0.00,,CLR,0.00,VWS V13.01,2013-04-23 17:31:00,
2013-04-23 10:36:00,56.7,36.1,30.21,North,0,0.0,0.0,46,0.00,,CLR,0.00,VWS V13.01,2013-04-23 17:36:00,
2013-04-23 10:41:00,58.1,36.9,30.21,West,270,2.0,2.0,45,0.00,,CLR,0.00,VWS V13.01,2013-04-23 17:41:00,
2013-04-23 10:46:00,58.3,35.9,30.21,WNW,292,0.0,0.0,43,0.00,,CLR,0.00,VWS V13.01,2013-04-23 17:46:00,
2013-04-23 10:51:00,57.7,36.6,30.21,SW,225,4.7,7.2,45,0.00,,CLR,0.00,VWS V13.01,2013-04-23 17:51:00,
2013-04-23 10:56:00,56.8,36.3,30.21,WSW,248,5.4,5.4,46,0.00,,CLR,0.00,VWS V13.01,2013-04-23 17:56:00,
2013-04-23 11:01:00,56.5,36.5,30.21,West,270,4.7,4.7,47,0.00,,CLR,0.00,VWS V13.01,2013-04-23 18:01:00,
2013-04-23 11:06:00,56.5,36.5,30.21,WSW,248,5.4,5.4,47,0.00,,CLR,0.00,VWS V13.01,2013-04-23 18:06:00,
2013-04-23 11:11:00,56.1,37.8,30.21,WSW,248,5.8,6.0,50,0.00,,CLR,0.00,VWS V13.01,2013-04-23 18:11:00,
2013-04-23 11:16:00,56.3,37.9,30.21,WSW,248,5.4,5.4,50,0.00,,CLR,0.00,VWS V13.01,2013-04-23 18:16:00,
2013-04-23 11:21:00,56.3,36.3,30.21,SW,225,5.8,5.8,47,0.00,,CLR,0.00,VWS V13.01,2013-04-23 18:21:00,
2013-04-23 11:26:00,56.7,36.1,30.21,WSW,248,4.0,4.0,46,0.00,,CLR,0.00,VWS V13.01,2013-04-23 18:26:00,
2013-04-23 11:31:00,56.8,36.3,30.21,West,270,5.6,6.5,46,0.00,,CLR,0.00,VWS V13.01,2013-04-23 18:31:00,
2013-04-23 11:36:00,57.0,35.3,30.21,West,270,5.4,6.3,44,0.00,,CLR,0.00,VWS V13.01,2013-04-23 18:36:00,
2013-04-23 11:41:00,56.8,35.7,30.21,WSW,248,4.3,5.6,45,0.00,,CLR,0.00,VWS V13.01,2013-04-23 18:41:00,
2013-04-23 11:46:00,56.5,35.4,30.21,West,270,5.4,7.2,45,0.00,,CLR,0.00,VWS V13.01,2013-04-23 18:46:00,
2013-04-23 11:51:00,56.3,36.3,30.21,WSW,248,5.8,7.6,47,0.00,,CLR,0.00,VWS V13.01,2013-04-23 18:51:00,
2013-04-23 11:56:00,56.5,34.8,30.21,WNW,292,7.4,7.4,44,0.00,,CLR,0.00,VWS V13.01,2013-04-23 18:56:00,
2013-04-23 12:01:00,56.1,36.7,30.21,WSW,248,6.3,7.4,48,0.00,,FEW120,0.00,VWS V13.01,2013-04-23 19:01:00,
2013-04-23 12:06:00,56.3,37.9,30.21,SW,225,5.8,7.4,50,0.00,,FEW120,0.00,VWS V13.01,2013-04-23 19:06:00,
2013-04-23 12:11:00,55.9,37.1,30.21,West,270,7.6,7.6,49,0.00,,FEW120,0.00,VWS V13.01,2013-04-23 19:11:00,
2013-04-23 12:16:00,56.3,38.4,30.21,West,270,5.4,6.3,51,0.00,,FEW120,0.00,VWS V13.01,2013-04-23 19:16:00,
2013-04-23 12:21:00,56.7,38.8,30.21,WSW,248,5.4,8.1,51,0.00,,FEW120,0.00,VWS V13.01,2013-04-23 19:21:00,
2013-04-23 12:26:00,56.8,38.9,30.21,WSW,248,5.6,5.8,51,0.00,,FEW120,0.00,VWS V13.01,2013-04-23 19:26:00,
2013-04-23 12:31:00,56.3,39.4,30.21,SW,225,7.4,7.4,53,0.00,,FEW120,0.00,VWS V13.01,2013-04-23 19:31:00,
2013-04-23 12:37:00,56.7,38.2,30.21,WSW,248,6.3,6.3,50,0.00,,FEW120,0.00,VWS V13.01,2013-04-23 19:37:00,
2013-04-23 12:42:00,56.8,38.9,30.21,SW,225,4.9,6.0,51,0.00,,FEW120,0.00,VWS V13.01,2013-04-23 19:42:00,
2013-04-23 12:47:00,56.7,37.7,30.21,West,270,3.4,7.4,49,0.00,,FEW120,0.00,VWS V13.01,2013-04-23 19:47:00,
2013-04-23 12:52:00,56.7,39.2,30.21,West,270,3.1,4.9,52,0.00,,FEW120,0.00,VWS V13.01,2013-04-23 19:52:00,
2013-04-23 12:57:00,56.7,38.8,30.21,West,270,3.8,6.7,51,0.00,,FEW120,0.00,VWS V13.01,2013-04-23 19:57:00,
2013-04-23 13:02:00,56.5,40.0,30.21,SW,225,4.0,7.8,54,0.00,,FEW120,0.00,VWS V13.01,2013-04-23 20:02:00,
2013-04-23 13:07:00,56.7,41.2,30.21,WSW,248,4.9,6.3,56,0.00,,FEW120,0.00,VWS V13.01,2013-04-23 20:07:00,
2013-04-23 13:12:00,56.5,42.3,30.21,WSW,248,5.8,8.1,59,0.00,,FEW120,0.00,VWS V13.01,2013-04-23 20:12:00,
2013-04-23 13:17:00,56.8,39.4,30.21,West,270,8.5,8.5,52,0.00,,FEW120,0.00,VWS V13.01,2013-04-23 20:17:00,
2013-04-23 13:22:00,56.8,41.8,30.21,West,270,7.2,7.8,57,0.00,,FEW120,0.00,VWS V13.01,2013-04-23 20:22:00,
2013-04-23 13:27:00,56.8,40.9,30.21,West,270,5.4,7.6,55,0.00,,FEW120,0.00,VWS V13.01,2013-04-23 20:27:00,
2013-04-23 13:32:00,56.3,39.9,30.21,West,270,5.4,8.5,54,0.00,,FEW120,0.00,VWS V13.01,2013-04-23 20:32:00,
2013-04-23 13:37:00,56.3,41.7,30.21,WSW,248,7.6,8.5,58,0.00,,FEW120,0.00,VWS V13.01,2013-04-23 20:37:00,
2013-04-23 13:42:00,56.3,40.4,30.21,West,270,8.5,8.5,55,0.00,,FEW120,0.00,VWS V13.01,2013-04-23 20:42:00,
2013-04-23 13:47:00,56.5,44.5,30.21,WSW,248,5.6,9.8,64,0.00,,FEW120,0.00,VWS V13.01,2013-04-23 20:47:00,
2013-04-23 13:52:00,56.5,42.3,30.21,WSW,248,5.8,5.8,59,0.00,,FEW120,0.00,VWS V13.01,2013-04-23 20:52:00,
2013-04-23 13:57:00,57.0,41.0,30.21,West,270,6.3,6.3,55,0.00,,FEW120,0.00,VWS V13.01,2013-04-23 20:57:00,
2013-04-23 14:02:00,56.8,41.3,30.21,SW,225,4.9,6.3,56,0.00,,FEW120,0.00,VWS V13.01,2013-04-23 21:02:00,
2013-04-23 14:07:00,56.7,40.7,30.21,West,270,8.5,8.5,55,0.00,,FEW120,0.00,VWS V13.01,2013-04-23 21:07:00,
2013-04-23 14:12:00,57.2,39.2,30.21,WSW,248,8.1,8.1,51,0.00,,FEW120,0.00,VWS V13.01,2013-04-23 21:12:00,
2013-04-23 14:17:00,57.0,42.0,30.24,SW,225,4.9,7.6,57,0.00,,FEW120,0.00,VWS V13.01,2013-04-23 21:17:00,
2013-04-23 14:22:00,56.8,44.0,30.24,West,270,6.3,6.3,62,0.00,,FEW120,0.00,VWS V13.01,2013-04-23 21:22:00,
2013-04-23 14:27:00,57.0,42.0,30.24,WNW,292,6.3,7.6,57,0.00,,FEW120,0.00,VWS V13.01,2013-04-23 21:27:00,
2013-04-23 14:32:00,57.4,42.7,30.27,West,270,5.4,5.4,58,0.00,,FEW120,0.00,VWS V13.01,2013-04-23 21:32:00,
2013-04-23 14:37:00,57.4,41.4,30.27,WSW,248,7.8,7.8,55,0.00,,FEW120,0.00,VWS V13.01,2013-04-23 21:37:00,
2013-04-23 14:42:00,57.6,42.0,30.27,West,270,5.6,7.4,56,0.00,,FEW120,0.00,VWS V13.01,2013-04-23 21:42:00,
2013-04-23 14:47:00,57.4,42.3,30.30,West,270,6.5,6.5,57,0.00,,FEW120,0.00,VWS V13.01,2013-04-23 21:47:00,
2013-04-23 14:52:00,56.8,43.1,30.30,SW,225,7.4,9.0,60,0.00,,FEW120,0.00,VWS V13.01,2013-04-23 21:52:00,
2013-04-23 14:57:00,57.0,41.5,30.30,West,270,6.3,9.2,56,0.00,,FEW120,0.00,VWS V13.01,2013-04-23 21:57:00,
2013-04-23 15:02:00,57.2,42.1,30.33,West,270,6.3,7.8,57,0.00,,FEW120,0.00,VWS V13.01,2013-04-23 22:02:00,
2013-04-23 15:07:00,57.2,42.6,30.33,WSW,248,7.6,8.1,58,0.00,,FEW120,0.00,VWS V13.01,2013-04-23 22:07:00,
2013-04-23 15:13:00,57.2,41.2,30.33,WSW,248,8.7,8.7,55,0.00,,FEW120,0.00,VWS V13.01,2013-04-23 22:13:00,
2013-04-23 15:18:00,57.6,41.5,30.33,SE,135,7.8,8.1,55,0.00,,FEW120,0.00,VWS V13.01,2013-04-23 22:18:00,
2013-04-23 15:23:00,57.6,40.1,30.33,WSW,248,8.1,8.5,52,0.00,,FEW120,0.00,VWS V13.01,2013-04-23 22:23:00,
2013-04-23 15:28:00,57.2,39.8,30.33,West,270,8.7,10.1,52,0.00,,FEW120,0.00,VWS V13.01,2013-04-23 22:28:00,
2013-04-23 15:33:00,57.0,40.1,30.36,West,270,8.5,10.5,53,0.00,,FEW120,0.00,VWS V13.01,2013-04-23 22:33:00,
2013-04-23 15:38:00,57.2,41.7,30.36,West,270,11.0,11.0,56,0.00,,FEW120,0.00,VWS V13.01,2013-04-23 22:38:00,
2013-04-23 15:43:00,57.2,40.7,30.36,West,270,9.8,9.8,54,0.00,,FEW120,0.00,VWS V13.01,2013-04-23 22:43:00,
2013-04-23 15:48:00,57.0,44.1,30.39,WNW,292,10.3,10.3,62,0.00,,FEW120,0.00,VWS V13.01,2013-04-23 22:48:00,
2013-04-23 15:53:00,56.8,39.9,30.39,WSW,248,8.1,8.1,53,0.00,,FEW120,0.00,VWS V13.01,2013-04-23 22:53:00,
2013-04-23 15:58:00,57.2,40.2,30.39,West,270,8.5,11.0,53,0.00,,FEW120,0.00,VWS V13.01,2013-04-23 22:58:00,
2013-04-23 16:03:00,57.6,40.1,30.39,WNW,292,8.5,8.5,52,0.00,,CLR,0.00,VWS V13.01,2013-04-23 23:03:00,
2013-04-23 16:08:00,57.2,41.7,30.39,WNW,292,8.5,9.8,56,0.00,,CLR,0.00,VWS V13.01,2013-04-23 23:08:00,
2013-04-23 16:13:00,56.8,43.5,30.39,West,270,12.3,12.3,61,0.00,,CLR,0.00,VWS V13.01,2013-04-23 23:13:00,
2013-04-23 16:18:00,57.4,44.5,30.41,NW,315,7.8,9.6,62,0.00,,CLR,0.00,VWS V13.01,2013-04-23 23:18:00,
2013-04-23 16:23:00,57.2,40.2,30.41,WNW,292,7.8,10.1,53,0.00,,CLR,0.00,VWS V13.01,2013-04-23 23:23:00,
2013-04-23 16:28:00,57.2,40.2,30.41,West,270,8.7,9.0,53,0.00,,CLR,0.00,VWS V13.01,2013-04-23 23:28:00,
2013-04-23 16:33:00,57.9,42.3,30.41,West,270,8.1,8.1,56,0.00,,CLR,0.00,VWS V13.01,2013-04-23 23:33:00,
2013-04-23 16:38:00,57.9,39.9,30.41,West,270,10.3,10.3,51,0.00,,CLR,0.00,VWS V13.01,2013-04-23 23:38:00,
2013-04-23 16:43:00,57.9,38.9,30.41,WNW,292,7.6,7.6,49,0.00,,CLR,0.00,VWS V13.01,2013-04-23 23:43:00,
2013-04-23 16:49:00,57.9,42.8,30.41,NW,315,7.6,8.7,57,0.00,,CLR,0.00,VWS V13.01,2013-04-23 23:49:00,
2013-04-23 16:54:00,57.9,41.4,30.41,West,270,10.3,10.3,54,0.00,,CLR,0.00,VWS V13.01,2013-04-23 23:54:00,
2013-04-23 16:59:00,57.7,44.4,30.41,West,270,9.8,10.1,61,0.00,,CLR,0.00,VWS V13.01,2013-04-23 23:59:00,
2013-04-23 17:04:00,57.6,43.8,30.41,West,270,8.1,8.1,60,0.00,,CLR,0.00,VWS V13.01,2013-04-24 00:04:00,
2013-04-23 17:09:00,57.7,41.7,30.41,West,270,10.5,10.5,55,0.00,,CLR,0.00,VWS V13.01,2013-04-24 00:09:00,
2013-04-23 17:14:00,57.2,39.2,30.41,West,270,10.5,10.5,51,0.00,,CLR,0.00,VWS V13.01,2013-04-24 00:14:00,
2013-04-23 17:19:00,57.6,42.0,30.41,WNW,292,8.1,8.5,56,0.00,,CLR,0.00,VWS V13.01,2013-04-24 00:19:00,
2013-04-23 17:24:00,57.7,41.2,30.41,West,270,8.7,8.7,54,0.00,,CLR,0.00,VWS V13.01,2013-04-24 00:24:00,
2013-04-23 17:29:00,57.9,40.4,30.41,West,270,8.5,8.5,52,0.00,,CLR,0.00,VWS V13.01,2013-04-24 00:29:00,
2013-04-23 17:34:00,57.9,43.7,30.41,West,270,8.5,8.5,59,0.00,,CLR,0.00,VWS V13.01,2013-04-24 00:34:00,
2013-04-23 17:39:00,57.7,41.2,30.41,West,270,8.1,8.1,54,0.00,,CLR,0.00,VWS V13.01,2013-04-24 00:39:00,
2013-04-23 17:44:00,58.1,41.1,30.41,West,270,7.6,8.7,53,0.00,,CLR,0.00,VWS V13.01,2013-04-24 00:44:00,
2013-04-23 17:49:00,58.1,39.1,30.41,West,270,9.8,9.8,49,0.00,,CLR,0.00,VWS V13.01,2013-04-24 00:49:00,
2013-04-23 17:54:00,57.6,38.0,30.41,WNW,292,9.8,9.8,48,0.00,,CLR,0.00,VWS V13.01,2013-04-24 00:54:00,
2013-04-23 17:59:00,57.9,40.9,30.41,WNW,292,8.1,8.1,53,0.00,,CLR,0.00,VWS V13.01,2013-04-24 00:59:00,
2013-04-23 18:04:00,58.1,40.6,30.41,West,270,8.1,8.1,52,0.00,,CLR,0.00,VWS V13.01,2013-04-24 01:04:00,
2013-04-23 18:09:00,58.3,41.2,30.41,West,270,6.5,6.5,53,0.00,,CLR,0.00,VWS V13.01,2013-04-24 01:09:00,
2013-04-23 18:14:00,58.1,38.5,30.41,West,270,8.5,8.5,48,0.00,,CLR,0.00,VWS V13.01,2013-04-24 01:14:00,
2013-04-23 18:19:00,58.3,41.2,30.41,West,270,6.5,7.4,53,0.00,,CLR,0.00,VWS V13.01,2013-04-24 01:19:00,
2013-04-23 18:24:00,58.6,41.1,30.39,West,270,7.4,8.5,52,0.00,,CLR,0.00,VWS V13.01,2013-04-24 01:24:00,
2013-04-23 18:29:00,58.8,42.2,30.39,WSW,248,5.6,7.4,54,0.00,,CLR,0.00,VWS V13.01,2013-04-24 01:29:00,
2013-04-23 18:34:00,58.8,41.7,30.39,WSW,248,7.4,7.4,53,0.00,,CLR,0.00,VWS V13.01,2013-04-24 01:34:00,
2013-04-23 18:39:00,58.6,38.5,30.39,WSW,248,7.6,7.6,47,0.00,,CLR,0.00,VWS V13.01,2013-04-24 01:39:00,
2013-04-23 18:44:00,59.0,39.9,30.39,WSW,248,6.0,6.0,49,0.00,,CLR,0.00,VWS V13.01,2013-04-24 01:44:00,
2013-04-23 18:49:00,59.2,37.3,30.39,WSW,248,7.6,7.6,44,0.00,,CLR,0.00,VWS V13.01,2013-04-24 01:49:00,
2013-04-23 18:55:00,59.0,38.3,30.39,West,270,6.0,7.8,46,0.00,,CLR,0.00,VWS V13.01,2013-04-24 01:55:00,
2013-04-23 19:00:00,59.2,38.4,30.39,WNW,292,4.3,5.8,46,0.00,,CLR,0.00,VWS V13.01,2013-04-24 02:00:00,
2013-04-23 19:05:00,59.2,39.0,30.41,WSW,248,6.3,6.3,47,0.00,,CLR,0.00,VWS V13.01,2013-04-24 02:05:00,
2013-04-23 19:10:00,59.2,42.1,30.41,WSW,248,6.0,6.5,53,0.00,,CLR,0.00,VWS V13.01,2013-04-24 02:10:00,
2013-04-23 19:15:00,58.6,42.5,30.41,WSW,248,5.6,5.6,55,0.00,,CLR,0.00,VWS V13.01,2013-04-24 02:15:00,
2013-04-23 19:20:00,58.5,40.9,30.41,West,270,5.6,6.0,52,0.00,,CLR,0.00,VWS V13.01,2013-04-24 02:20:00,
2013-04-23 19:25:00,58.1,41.1,30.41,WNW,292,3.8,6.0,53,0.00,,CLR,0.00,VWS V13.01,2013-04-24 02:25:00,
2013-04-23 19:30:00,58.1,44.3,30.41,West,270,3.6,3.6,60,0.00,,CLR,0.00,VWS V13.01,2013-04-24 02:30:00,
2013-04-23 19:35:00,57.9,44.6,30.39,SW,225,6.5,6.5,61,0.00,,CLR,0.00,VWS V13.01,2013-04-24 02:35:00,
2013-04-23 19:40:00,56.8,45.6,30.39,WSW,248,3.6,4.9,66,0.00,,CLR,0.00,VWS V13.01,2013-04-24 02:40:00,
2013-04-23 19:46:00,55.8,45.4,30.36,WSW,248,4.3,4.3,68,0.00,,CLR,0.00,VWS V13.01,2013-04-24 02:46:00,
2013-04-23 19:51:00,54.7,45.1,30.36,WSW,248,6.3,6.3,70,0.00,,CLR,0.00,VWS V13.01,2013-04-24 02:51:00,
2013-04-23 19:56:00,54.0,45.2,30.36,West,270,4.5,5.6,72,0.00,,CLR,0.00,VWS V13.01,2013-04-24 02:56:00,
2013-04-23 20:01:00,53.6,45.2,30.30,West,270,4.3,4.5,73,0.00,,CLR,0.00,VWS V13.01,2013-04-24 03:01:00,
2013-04-23 20:07:00,53.4,45.0,30.30,SW,225,3.6,3.8,73,0.00,,CLR,0.00,VWS V13.01,2013-04-24 03:07:00,
2013-04-23 20:12:00,53.2,45.5,30.30,WSW,248,2.2,2.9,75,0.00,,CLR,0.00,VWS V13.01,2013-04-24 03:12:00,
2013-04-23 20:17:00,52.2,44.5,30.24,West,270,3.4,4.9,75,0.00,,CLR,0.00,VWS V13.01,2013-04-24 03:17:00,
2013-04-23 20:22:00,52.0,45.0,30.24,WSW,248,3.1,3.4,77,0.00,,CLR,0.00,VWS V13.01,2013-04-24 03:22:00,
2013-04-23 20:27:00,52.0,45.0,30.24,WSW,248,2.7,3.8,77,0.00,,CLR,0.00,VWS V13.01,2013-04-24 03:27:00,
2013-04-23 20:32:00,51.8,43.4,30.21,South,180,0.9,2.2,73,0.00,,CLR,0.00,VWS V13.01,2013-04-24 03:32:00,
2013-04-23 20:38:00,51.4,43.1,30.21,West,270,4.3,4.3,73,0.00,,CLR,0.00,VWS V13.01,2013-04-24 03:38:00,
2013-04-23 20:43:00,51.6,43.3,30.21,West,270,4.0,4.3,73,0.00,,CLR,0.00,VWS V13.01,2013-04-24 03:43:00,
2013-04-23 20:49:00,51.4,42.4,30.18,ENE,68,0.0,0.0,71,0.00,,CLR,0.00,VWS V13.01,2013-04-24 03:49:00,
2013-04-23 20:54:00,49.5,41.2,30.18,ENE,68,1.3,1.3,73,0.00,,CLR,0.00,VWS V13.01,2013-04-24 03:54:00,
2013-04-23 21:00:00,48.7,40.8,30.18,ENE,68,0.0,0.0,74,0.00,,CLR,0.00,VWS V13.01,2013-04-24 04:00:00,
2013-04-23 21:01:00,48.4,40.5,30.18,ENE,68,0.0,0.0,74,0.00,,CLR,0.00,VWS V13.01,2013-04-24 04:01:00,
2013-04-23 21:02:00,48.4,40.8,30.18,East,90,2.5,2.9,75,0.00,,CLR,0.00,VWS V13.01,2013-04-24 04:02:00,
2013-04-23 21:05:00,48.6,41.0,30.18,East,90,0.0,0.0,75,0.00,,CLR,0.00,VWS V13.01,2013-04-24 04:05:00,
2013-04-23 21:07:00,48.2,40.7,30.18,East,90,0.0,1.6,75,0.00,,CLR,0.00,VWS V13.01,2013-04-24 04:07:00,
2013-04-23 21:12:00,47.3,40.1,30.18,East,90,0.0,0.0,76,0.00,,CLR,0.00,VWS V13.01,2013-04-24 04:12:00,
2013-04-23 21:17:00,46.9,39.8,30.18,ENE,68,0.0,0.0,76,0.00,,CLR,0.00,VWS V13.01,2013-04-24 04:17:00,
2013-04-23 21:22:00,46.6,40.1,30.18,East,90,0.0,0.0,78,0.00,,CLR,0.00,VWS V13.01,2013-04-24 04:22:00,
2013-04-23 21:27:00,46.2,40.1,30.18,NE,45,2.0,2.0,79,0.00,,CLR,0.00,VWS V13.01,2013-04-24 04:27:00,
2013-04-23 21:32:00,46.0,40.5,30.18,SE,135,2.5,2.5,81,0.00,,CLR,0.00,VWS V13.01,2013-04-24 04:32:00,
2013-04-23 21:37:00,45.5,40.3,30.18,ENE,68,0.9,1.6,82,0.00,,CLR,0.00,VWS V13.01,2013-04-24 04:37:00,
2013-04-23 21:42:00,45.1,40.0,30.18,NE,45,0.0,0.0,82,0.00,,CLR,0.00,VWS V13.01,2013-04-24 04:42:00,
2013-04-23 21:47:00,44.8,40.2,30.18,NE,45,0.0,0.0,84,0.00,,CLR,0.00,VWS V13.01,2013-04-24 04:47:00,
2013-04-23 21:52:00,44.6,40.4,30.18,ENE,68,0.0,0.0,85,0.00,,CLR,0.00,VWS V13.01,2013-04-24 04:52:00,
2013-04-23 21:57:00,44.1,39.8,30.18,East,90,0.0,0.0,85,0.00,,CLR,0.00,VWS V13.01,2013-04-24 04:57:00,
2013-04-23 22:02:00,43.9,40.0,30.18,NE,45,0.0,0.0,86,0.00,,CLR,0.00,VWS V13.01,2013-04-24 05:02:00,
2013-04-23 22:07:00,43.7,40.1,30.18,ENE,68,0.0,0.0,87,0.00,,CLR,0.00,VWS V13.01,2013-04-24 05:07:00,
2013-04-23 22:12:00,43.5,39.9,30.18,East,90,0.0,1.1,87,0.00,,CLR,0.00,VWS V13.01,2013-04-24 05:12:00,
2013-04-23 22:17:00,43.3,40.0,30.18,NE,45,1.1,1.1,88,0.00,,CLR,0.00,VWS V13.01,2013-04-24 05:17:00,
2013-04-23 22:22:00,43.2,40.1,30.18,ENE,68,0.0,0.0,89,0.00,,CLR,0.00,VWS V13.01,2013-04-24 05:22:00,
2013-04-23 22:28:00,42.8,40.1,30.18,East,90,0.0,0.0,90,0.00,,CLR,0.00,VWS V13.01,2013-04-24 05:28:00,
2013-04-23 22:33:00,42.6,40.2,30.18,NE,45,1.1,1.3,91,0.00,,CLR,0.00,VWS V13.01,2013-04-24 05:33:00,
2013-04-23 22:38:00,42.6,40.2,30.18,NE,45,0.0,0.0,91,0.00,,CLR,0.00,VWS V13.01,2013-04-24 05:38:00,
2013-04-23 22:43:00,42.4,40.3,30.18,ENE,68,0.0,0.0,92,0.00,,CLR,0.00,VWS V13.01,2013-04-24 05:43:00,
2013-04-23 22:48:00,42.3,40.4,30.18,ENE,68,0.0,0.9,93,0.00,,CLR,0.00,VWS V13.01,2013-04-24 05:48:00,
2013-04-23 22:53:00,41.9,40.0,30.18,NE,45,0.0,0.0,93,0.00,,CLR,0.00,VWS V13.01,2013-04-24 05:53:00,
2013-04-23 22:58:00,41.7,39.8,30.18,East,90,0.9,1.3,93,0.00,,CLR,0.00,VWS V13.01,2013-04-24 05:58:00,
2013-04-23 23:03:00,41.7,39.8,30.18,NE,45,0.0,0.0,93,0.00,,CLR,0.00,VWS V13.01,2013-04-24 06:03:00,
2013-04-23 23:08:00,41.5,39.7,30.18,ENE,68,0.0,0.0,93,0.00,,CLR,0.00,VWS V13.01,2013-04-24 06:08:00,
2013-04-23 23:13:00,41.4,39.5,30.18,NE,45,0.0,0.0,93,0.00,,CLR,0.00,VWS V13.01,2013-04-24 06:13:00,
2013-04-23 23:18:00,41.4,39.2,30.18,ENE,68,0.0,0.0,92,0.00,,CLR,0.00,VWS V13.01,2013-04-24 06:18:00,
2013-04-23 23:23:00,41.2,39.0,30.18,ENE,68,0.0,0.0,92,0.00,,CLR,0.00,VWS V13.01,2013-04-24 06:23:00,
2013-04-23 23:28:00,41.2,39.0,30.18,East,90,0.0,0.0,92,0.00,,CLR,0.00,VWS V13.01,2013-04-24 06:28:00,
2013-04-23 23:33:00,41.0,39.1,30.18,ENE,68,0.0,0.0,93,0.00,,CLR,0.00,VWS V13.01,2013-04-24 06:33:00,
2013-04-23 23:38:00,40.8,39.0,30.18,NE,45,0.0,0.0,93,0.00,,CLR,0.00,VWS V13.01,2013-04-24 06:38:00,
2013-04-23 23:43:00,40.6,39.0,30.18,East,90,0.0,0.0,94,0.00,,CLR,0.00,VWS V13.01,2013-04-24 06:43:00,
2013-04-23 23:48:00,40.5,38.9,30.15,ENE,68,0.0,0.0,94,0.00,,CLR,0.00,VWS V13.01,2013-04-24 06:48:00,
2013-04-23 23:53:00,40.5,38.9,30.15,NE,45,0.0,0.0,94,0.00,,CLR,0.00,VWS V13.01,2013-04-24 06:53:00,
2013-04-23 23:58:00,40.3,39.0,30.15,NE,45,0.0,0.0,95,0.00,,CLR,0.00,VWS V13.01,2013-04-24 06:58:00,